�������ċp�F�����K�X���j�^�v���󋵏��
Date,Time,�ċp�F�����K�X���j�^(cps),����,����(m/s)
2021/06/14,00:00,1.4,�k�k��,1.2
2021/06/14,00:10,1.5,�k�k��,2.5
2021/06/14,00:20,1.5,�k�k��,2.5
2021/06/14,00:30,1.5,�k,2.6
2021/06/14,00:40,1.5,�k,3.4
2021/06/14,00:50,1.4,�k,3.7
2021/06/14,01:00,1.5,�k,3.1
2021/06/14,01:10,1.4,�k�k��,2.0
2021/06/14,01:20,1.5,�k�k��,2.5
2021/06/14,01:30,1.4,�k��,2.3
2021/06/14,01:40,1.5,�k��,1.5
2021/06/14,01:50,1.5,�k��,1.2
2021/06/14,02:00,1.5,�k�k��,2.2
2021/06/14,02:10,1.5,�k�k��,2.6
2021/06/14,02:20,1.5,�k��,1.7
2021/06/14,02:30,1.5,�k��,1.9
2021/06/14,02:40,1.5,�k,2.2
2021/06/14,02:50,1.4,�k��,1.5
2021/06/14,03:00,1.5,�k�k��,1.2
2021/06/14,03:10,1.6,�k,1.2
2021/06/14,03:20,1.5,�k�k��,2.0
2021/06/14,03:30,1.4,�k�k��,1.7
2021/06/14,03:40,1.5,�k�k��,1.2
2021/06/14,03:50,1.5,�k,2.0
2021/06/14,04:00,1.4,-,CALM
2021/06/14,04:10,1.4,�k��,0.6
2021/06/14,04:20,1.4,��,0.6
2021/06/14,04:30,1.4,��,1.1
2021/06/14,04:40,1.5,��쐼,0.9
2021/06/14,04:50,1.5,�쐼,1.4
2021/06/14,05:00,1.5,�k��,0.8
2021/06/14,05:10,1.4,�k,1.2
2021/06/14,05:20,1.5,�k,1.2
2021/06/14,05:30,1.5,�k�k��,1.4
2021/06/14,05:40,1.5,�k�k��,1.9
2021/06/14,05:50,1.6,�k�k��,2.2
2021/06/14,06:00,1.5,�k�k��,2.0
2021/06/14,06:10,1.5,�k,1.2
2021/06/14,06:20,1.5,�k�k��,1.2
2021/06/14,06:30,1.5,�k�k��,2.0
2021/06/14,06:40,1.5,�k�k��,2.3
2021/06/14,06:50,1.5,�k,3.4
2021/06/14,07:00,1.5,�k,2.8
2021/06/14,07:10,1.5,�k�k��,3.3
2021/06/14,07:20,1.5,�k,3.2
2021/06/14,07:30,1.6,�k,3.4
2021/06/14,07:40,1.6,�k�k��,3.4
2021/06/14,07:50,1.4,�k,3.1
2021/06/14,08:00,1.5,�k,3.4
2021/06/14,08:10,1.4,�k�k��,4.7
2021/06/14,08:20,1.6,�k,5.7
2021/06/14,08:30,1.5,�k,5.5
2021/06/14,08:40,1.4,�k�k��,5.9
2021/06/14,08:50,1.5,�k�k��,5.5
2021/06/14,09:00,1.4,�k�k��,4.2
2021/06/14,09:10,1.4,�k,4.2
2021/06/14,09:20,1.5,�k�k��,4.5
2021/06/14,09:30,1.5,�k,4.3
2021/06/14,09:40,1.4,�k�k��,3.7
2021/06/14,09:50,1.5,�k,4.0
2021/06/14,10:00,1.5,�k,4.2
2021/06/14,10:10,1.5,�k,4.9
2021/06/14,10:20,1.5,�k�k��,5.4
2021/06/14,10:30,1.5,�k,6.5
2021/06/14,10:40,1.5,�k�k��,6.3
2021/06/14,10:50,1.4,�k�k��,6.2
2021/06/14,11:00,1.5,�k�k��,7.1
2021/06/14,11:10,1.4,�k�k��,6.7
2021/06/14,11:20,1.5,�k�k��,6.5
2021/06/14,11:30,1.5,�k�k��,5.2
2021/06/14,11:40,1.4,�k�k��,4.8
2021/06/14,11:50,1.5,�k,5.0
2021/06/14,12:00,1.4,�k�k��,4.2
2021/06/14,12:10,1.4,�k,4.7
2021/06/14,12:20,1.5,�k�k��,4.1
2021/06/14,12:30,1.5,�k�k��,4.4
2021/06/14,12:40,1.4,�k�k��,3.9
2021/06/14,12:50,1.4,�k�k��,3.5
2021/06/14,13:00,1.5,�k��,2.3
2021/06/14,13:10,1.5,�k��,2.9
2021/06/14,13:20,1.5,�k��,2.6
2021/06/14,13:30,1.6,���k��,2.9
2021/06/14,13:40,1.5,�k��,2.8
2021/06/14,13:50,1.5,���k��,1.1
2021/06/14,14:00,1.5,���쓌,2.0
2021/06/14,14:10,1.4,���쓌,2.0
2021/06/14,14:20,1.5,��,1.2
2021/06/14,14:30,1.5,�쓌,1.7
2021/06/14,14:40,1.5,�쓌,2.3
2021/06/14,14:50,1.4,�쓌,2.3
2021/06/14,15:00,1.5,�쓌,2.6
2021/06/14,15:10,1.4,��쓌,2.8
2021/06/14,15:20,1.5,��쓌,1.5
2021/06/14,15:30,1.5,��쓌,1.7
2021/06/14,15:40,1.4,��쓌,2.6
2021/06/14,15:50,1.4,��쓌,3.6
2021/06/14,16:00,1.4,��,3.3
2021/06/14,16:10,1.4,��쐼,2.3
2021/06/14,16:20,1.5,��,2.6
2021/06/14,16:30,1.5,��,3.0
2021/06/14,16:40,1.5,��,2.2
2021/06/14,16:50,1.4,��,3.5
2021/06/14,17:00,1.4,��,4.7
2021/06/14,17:10,1.5,��,5.0
2021/06/14,17:20,1.5,��,4.4
2021/06/14,17:30,1.5,��쐼,3.9
2021/06/14,17:40,1.4,��,4.4
2021/06/14,17:50,1.5,��쓌,4.9
2021/06/14,18:00,1.4,��,5.7
2021/06/14,18:10,1.5,��,6.4
2021/06/14,18:20,1.5,��,5.9
2021/06/14,18:30,1.5,��,4.9
2021/06/14,18:40,1.5,��,4.6
2021/06/14,18:50,1.4,��,4.4
2021/06/14,19:00,1.5,��,2.6
2021/06/14,19:10,1.5,��,2.6
2021/06/14,19:20,1.5,��쐼,2.0
2021/06/14,19:30,1.5,��쐼,1.2
2021/06/14,19:40,1.5,��,1.5
2021/06/14,19:50,1.5,��,1.1
2021/06/14,20:00,1.5,��쐼,1.5
2021/06/14,20:10,1.5,�쐼,1.5
2021/06/14,20:20,1.5,��쐼,1.2
2021/06/14,20:30,1.5,��쐼,1.2
2021/06/14,20:40,1.5,�쐼,1.2
2021/06/14,20:50,1.4,��,0.6
2021/06/14,21:00,1.5,-,CALM
2021/06/14,21:10,1.4,��,0.8
2021/06/14,21:20,1.6,�k��,1.5
2021/06/14,21:30,1.4,�k��,2.2
2021/06/14,21:40,1.4,�k��,2.5
2021/06/14,21:50,1.4,�k��,3.6
2021/06/14,22:00,1.5,�k��,4.2
2021/06/14,22:10,1.5,�k�k��,5.1
2021/06/14,22:20,1.5,�k�k��,5.2
2021/06/14,22:30,1.4,�k�k��,4.6
2021/06/14,22:40,1.5,�k�k��,4.3
2021/06/14,22:50,1.6,�k,3.6
2021/06/14,23:00,1.5,�k�k��,3.3
2021/06/14,23:10,1.5,�k�k��,3.6
2021/06/14,23:20,1.4,�k�k��,3.8
2021/06/14,23:30,1.4,�k�k��,4.5
2021/06/14,23:40,1.5,�k�k��,5.6
2021/06/14,23:50,1.5,�k�k��,5.6
